Time,TemperatureF,DewpointF,PressureIn,WindDirection,WindDirectionDegrees,WindSpeedMPH,WindSpeedGustMPH,Humidity,HourlyPrecipIn,Conditions,Clouds,dailyrainin,SoftwareType,DateUTC
2013-05-23 00:07:00,43.0,43.0,30.01,South,180,0.0,0.0,100,0.00,,,-99.99,Weather View 32 v60,2013-05-23 07:07:00,
2013-05-23 00:17:00,43.0,43.0,30.01,South,180,0.0,0.0,100,0.00,,,-99.99,Weather View 32 v60,2013-05-23 07:17:00,
2013-05-23 00:22:00,43.0,43.0,30.01,South,180,0.0,0.0,100,0.00,,,-99.99,Weather View 32 v60,2013-05-23 07:22:00,
2013-05-23 00:32:00,43.0,43.0,30.01,South,180,0.0,0.0,100,0.00,,,-99.99,Weather View 32 v60,2013-05-23 07:32:00,
2013-05-23 00:42:00,43.0,43.0,30.01,South,180,0.0,0.0,100,0.00,,,-99.99,Weather View 32 v60,2013-05-23 07:42:00,
2013-05-23 00:47:00,43.0,43.0,30.01,South,180,0.0,0.0,100,0.00,,,-99.99,Weather View 32 v60,2013-05-23 07:47:00,
2013-05-23 00:52:00,43.0,43.0,30.01,South,180,0.0,0.0,100,0.00,,,-99.99,Weather View 32 v60,2013-05-23 07:52:00,
2013-05-23 01:02:00,43.0,43.0,30.01,South,180,0.0,0.0,100,0.00,,,-99.99,Weather View 32 v60,2013-05-23 08:02:00,
2013-05-23 01:07:00,43.0,43.0,30.01,South,180,0.0,0.0,100,0.00,,,-99.99,Weather View 32 v60,2013-05-23 08:07:00,
2013-05-23 01:17:00,43.0,43.0,30.01,South,180,0.0,0.0,100,0.00,,,-99.99,Weather View 32 v60,2013-05-23 08:17:00,
2013-05-23 01:27:00,43.0,43.0,30.01,South,180,0.0,0.0,100,0.00,,,-99.99,Weather View 32 v60,2013-05-23 08:27:00,
2013-05-23 01:32:00,43.0,43.0,30.01,West,270,0.0,3.0,100,0.00,,,-99.99,Weather View 32 v60,2013-05-23 08:32:00,
2013-05-23 01:42:00,43.0,43.0,30.02,NW,315,3.0,6.0,100,0.00,,,-99.99,Weather View 32 v60,2013-05-23 08:42:00,
2013-05-23 01:47:00,43.0,43.0,30.02,NW,315,0.0,6.0,100,0.00,,,-99.99,Weather View 32 v60,2013-05-23 08:47:00,
2013-05-23 01:57:00,43.0,43.0,30.02,West,270,0.0,6.0,100,0.00,,,-99.99,Weather View 32 v60,2013-05-23 08:57:00,
2013-05-23 02:02:00,43.0,43.0,30.02,West,270,0.0,6.0,100,0.00,,,-99.99,Weather View 32 v60,2013-05-23 09:02:00,
2013-05-23 02:07:00,43.0,43.0,30.03,West,270,0.0,6.0,100,0.00,,,-99.99,Weather View 32 v60,2013-05-23 09:07:00,
2013-05-23 02:17:00,42.0,42.0,30.03,West,270,2.0,6.0,100,0.00,,,-99.99,Weather View 32 v60,2013-05-23 09:17:00,
2013-05-23 02:27:00,42.0,42.0,30.03,SW,225,3.0,6.0,100,0.00,,,-99.99,Weather View 32 v60,2013-05-23 09:27:00,
2013-05-23 02:32:00,42.0,42.0,30.03,WNW,292,4.0,7.0,100,0.00,,,-99.99,Weather View 32 v60,2013-05-23 09:32:00,
2013-05-23 02:42:00,42.0,42.0,30.03,NW,315,4.0,7.0,100,0.00,,,-99.99,Weather View 32 v60,2013-05-23 09:42:00,
2013-05-23 02:47:00,42.0,42.0,30.03,WNW,292,1.0,7.0,100,0.00,,,-99.99,Weather View 32 v60,2013-05-23 09:47:00,
2013-05-23 02:52:00,42.0,42.0,30.03,NW,315,2.0,7.0,100,0.00,,,-99.99,Weather View 32 v60,2013-05-23 09:52:00,
2013-05-23 03:02:00,42.0,42.0,30.03,NW,315,4.0,8.0,100,0.00,,,-99.99,Weather View 32 v60,2013-05-23 10:02:00,
2013-05-23 03:12:00,41.0,41.0,30.03,West,270,4.0,8.0,100,0.00,,,-99.99,Weather View 32 v60,2013-05-23 10:12:00,
2013-05-23 03:17:00,41.0,41.0,30.03,West,270,0.0,8.0,100,0.00,,,-99.99,Weather View 32 v60,2013-05-23 10:17:00,
2013-05-23 03:27:00,41.0,41.0,30.03,SW,225,0.0,9.0,100,0.00,,,-99.99,Weather View 32 v60,2013-05-23 10:27:00,
2013-05-23 03:32:00,41.0,41.0,30.03,NW,315,2.0,9.0,100,0.00,,,-99.99,Weather View 32 v60,2013-05-23 10:32:00,
2013-05-23 03:42:00,41.0,41.0,30.03,NW,315,0.0,9.0,100,0.00,,,-99.99,Weather View 32 v60,2013-05-23 10:42:00,
2013-05-23 03:47:00,41.0,41.0,30.04,SW,225,0.0,9.0,100,0.00,,,-99.99,Weather View 32 v60,2013-05-23 10:47:00,
2013-05-23 03:57:00,41.0,41.0,30.04,West,270,1.0,9.0,100,0.00,,,-99.99,Weather View 32 v60,2013-05-23 10:57:00,
2013-05-23 04:02:00,41.0,41.0,30.04,West,270,0.0,9.0,100,0.00,,,-99.99,Weather View 32 v60,2013-05-23 11:02:00,
2013-05-23 04:12:00,41.0,41.0,30.04,West,270,0.0,9.0,100,0.00,,,-99.99,Weather View 32 v60,2013-05-23 11:12:00,
2013-05-23 04:22:00,41.0,41.0,30.04,West,270,3.0,8.0,100,0.00,,,-99.99,Weather View 32 v60,2013-05-23 11:22:00,
2013-05-23 04:27:00,41.0,41.0,30.04,West,270,3.0,8.0,100,0.00,,,-99.99,Weather View 32 v60,2013-05-23 11:27:00,
2013-05-23 04:37:00,41.0,41.0,30.04,West,270,3.0,8.0,100,0.00,,,-99.99,Weather View 32 v60,2013-05-23 11:37:00,
2013-05-23 04:42:00,41.0,40.7,30.04,WNW,292,7.0,11.0,99,0.00,,,-99.99,Weather View 32 v60,2013-05-23 11:42:00,
2013-05-23 04:47:00,41.0,40.7,30.04,West,270,6.0,11.0,99,0.00,,,-99.99,Weather View 32 v60,2013-05-23 11:47:00,
2013-05-23 04:57:00,41.0,40.7,30.04,West,270,3.0,11.0,99,0.00,,,-99.99,Weather View 32 v60,2013-05-23 11:57:00,
2013-05-23 05:07:00,41.0,40.7,30.04,WNW,292,2.0,11.0,99,0.00,,,-99.99,Weather View 32 v60,2013-05-23 12:07:00,
2013-05-23 05:17:00,41.0,41.0,30.05,SW,225,1.0,11.0,100,0.00,,,-99.99,Weather View 32 v60,2013-05-23 12:17:00,
2013-05-23 05:22:00,41.0,41.0,30.05,West,270,0.0,11.0,100,0.00,,,-99.99,Weather View 32 v60,2013-05-23 12:22:00,
2013-05-23 05:32:00,41.0,41.0,30.05,West,270,0.0,11.0,100,0.00,,,-99.99,Weather View 32 v60,2013-05-23 12:32:00,
2013-05-23 05:42:00,41.0,41.0,30.05,SW,225,0.0,10.0,100,0.01,,,-99.99,Weather View 32 v60,2013-05-23 12:42:00,
2013-05-23 05:47:00,41.0,41.0,30.06,West,270,0.0,10.0,100,0.01,,,-99.99,Weather View 32 v60,2013-05-23 12:47:00,
2013-05-23 05:52:00,40.0,40.0,30.06,West,270,0.0,8.0,100,0.01,,,-99.99,Weather View 32 v60,2013-05-23 12:52:00,
2013-05-23 05:57:00,41.0,41.0,30.06,West,270,3.0,7.0,100,0.01,,,-99.99,Weather View 32 v60,2013-05-23 12:57:00,
2013-05-23 06:02:00,41.0,41.0,30.06,SSW,202,0.0,7.0,100,0.01,,,-99.99,Weather View 32 v60,2013-05-23 13:02:00,
2013-05-23 06:12:00,41.0,41.0,30.06,West,270,0.0,7.0,100,0.01,,,-99.99,Weather View 32 v60,2013-05-23 13:12:00,
2013-05-23 06:17:00,41.0,41.0,30.06,West,270,0.0,7.0,100,0.02,,,-99.99,Weather View 32 v60,2013-05-23 13:17:00,
2013-05-23 06:27:00,41.0,41.0,30.07,West,270,0.0,7.0,100,0.02,,,-99.99,Weather View 32 v60,2013-05-23 13:27:00,
2013-05-23 06:32:00,40.0,40.0,30.07,South,180,0.0,7.0,100,0.02,,,-99.99,Weather View 32 v60,2013-05-23 13:32:00,
2013-05-23 06:42:00,40.0,40.0,30.07,West,270,2.0,6.0,100,0.01,,,-99.99,Weather View 32 v60,2013-05-23 13:42:00,
2013-05-23 06:52:00,40.0,40.0,30.07,West,270,0.0,6.0,100,0.01,,,-99.99,Weather View 32 v60,2013-05-23 13:52:00,
2013-05-23 06:57:00,41.0,41.0,30.07,NW,315,0.0,6.0,100,0.01,,,-99.99,Weather View 32 v60,2013-05-23 13:57:00,
2013-05-23 07:02:00,41.0,41.0,30.07,NW,315,2.0,3.0,100,0.01,,,-99.99,Weather View 32 v60,2013-05-23 14:02:00,
2013-05-23 07:12:00,41.0,41.0,30.07,NW,315,3.0,4.0,100,0.02,,,-99.99,Weather View 32 v60,2013-05-23 14:12:00,
2013-05-23 07:17:00,41.0,41.0,30.07,West,270,0.0,5.0,100,0.01,,,-99.99,Weather View 32 v60,2013-05-23 14:17:00,
2013-05-23 07:27:00,41.0,41.0,30.07,SW,225,0.0,5.0,100,0.02,,,-99.99,Weather View 32 v60,2013-05-23 14:27:00,
2013-05-23 07:32:00,41.0,41.0,30.07,SW,225,0.0,5.0,100,0.02,,,-99.99,Weather View 32 v60,2013-05-23 14:32:00,
2013-05-23 07:37:00,41.0,41.0,30.07,SW,225,0.0,5.0,100,0.03,,,-99.99,Weather View 32 v60,2013-05-23 14:37:00,
2013-05-23 07:45:00,41.0,41.0,30.07,SW,225,0.0,5.0,100,0.03,,,-99.99,Weather View 32 v60,2013-05-23 14:45:00,
2013-05-23 07:52:00,41.0,41.0,30.07,SW,225,0.0,5.0,100,0.03,,,-99.99,Weather View 32 v60,2013-05-23 14:52:00,
2013-05-23 07:57:00,41.0,41.0,30.07,SW,225,0.0,5.0,100,0.03,,,-99.99,Weather View 32 v60,2013-05-23 14:57:00,
2013-05-23 08:02:00,41.0,41.0,30.07,SW,225,0.0,5.0,100,0.03,,,-99.99,Weather View 32 v60,2013-05-23 15:02:00,
2013-05-23 08:12:00,41.0,41.0,30.07,West,270,3.0,6.0,100,0.02,,,-99.99,Weather View 32 v60,2013-05-23 15:12:00,
2013-05-23 08:17:00,41.0,41.0,30.07,West,270,2.0,6.0,100,0.02,,,-99.99,Weather View 32 v60,2013-05-23 15:17:00,
2013-05-23 08:22:00,42.0,42.0,30.07,West,270,1.0,6.0,100,0.01,,,-99.99,Weather View 32 v60,2013-05-23 15:22:00,
2013-05-23 08:32:00,43.0,43.0,30.07,West,270,1.0,6.0,100,0.01,,,-99.99,Weather View 32 v60,2013-05-23 15:32:00,
2013-05-23 08:37:00,43.0,42.7,30.07,WSW,247,1.0,6.0,99,0.00,,,-99.99,Weather View 32 v60,2013-05-23 15:37:00,
2013-05-23 08:46:00,43.0,42.5,30.07,WNW,292,4.0,6.0,98,0.00,,,-99.99,Weather View 32 v60,2013-05-23 15:46:00,
2013-05-23 08:52:00,44.0,42.9,30.08,SW,225,0.0,6.0,96,0.00,,,-99.99,Weather View 32 v60,2013-05-23 15:52:00,
2013-05-23 08:57:00,44.0,42.7,30.07,SW,225,3.0,6.0,95,0.00,,,-99.99,Weather View 32 v60,2013-05-23 15:57:00,
2013-05-23 09:07:00,44.0,42.4,30.07,SW,225,0.0,6.0,94,0.00,,,-99.99,Weather View 32 v60,2013-05-23 16:07:00,
2013-05-23 09:17:00,45.0,42.8,30.06,SW,225,0.0,5.0,92,0.00,,,-99.99,Weather View 32 v60,2013-05-23 16:17:00,
2013-05-23 09:22:00,45.0,41.9,30.06,SW,225,2.0,5.0,89,0.00,,,-99.99,Weather View 32 v60,2013-05-23 16:22:00,
2013-05-23 09:32:00,46.0,41.7,30.06,SW,225,1.0,5.0,85,0.00,,,-99.99,Weather View 32 v60,2013-05-23 16:32:00,
2013-05-23 09:42:00,46.0,41.4,30.06,NW,315,3.0,5.0,84,0.00,,,-99.99,Weather View 32 v60,2013-05-23 16:42:00,
2013-05-23 09:47:00,46.0,41.4,30.06,NW,315,3.0,5.0,84,0.00,,,-99.99,Weather View 32 v60,2013-05-23 16:47:00,
2013-05-23 09:52:00,47.0,43.0,30.06,NW,315,4.0,5.0,86,0.00,,,-99.99,Weather View 32 v60,2013-05-23 16:52:00,
2013-05-23 10:02:00,47.0,43.0,30.06,SW,225,1.0,5.0,86,0.00,,,-99.99,Weather View 32 v60,2013-05-23 17:02:00,
2013-05-23 10:12:00,47.0,43.0,30.06,West,270,5.0,6.0,86,0.00,,,-99.99,Weather View 32 v60,2013-05-23 17:12:00,
2013-05-23 10:17:00,47.0,43.3,30.06,West,270,4.0,6.0,87,0.00,,,-99.99,Weather View 32 v60,2013-05-23 17:17:00,
2013-05-23 10:27:00,47.0,43.9,30.06,WNW,292,2.0,6.0,89,0.00,,,-99.99,Weather View 32 v60,2013-05-23 17:27:00,
2013-05-23 10:32:00,46.0,43.2,30.06,NW,315,3.0,6.0,90,0.00,,,-99.99,Weather View 32 v60,2013-05-23 17:32:00,
2013-05-23 10:42:00,46.0,43.8,30.06,WNW,292,3.0,7.0,92,0.00,,,-99.99,Weather View 32 v60,2013-05-23 17:42:00,
2013-05-23 10:47:00,46.0,43.8,30.06,NW,315,4.0,7.0,92,0.00,,,-99.99,Weather View 32 v60,2013-05-23 17:47:00,
2013-05-23 10:57:00,46.0,44.6,30.05,WNW,292,3.0,8.0,95,0.00,,,-99.99,Weather View 32 v60,2013-05-23 17:57:00,
2013-05-23 11:02:00,46.0,44.1,30.05,WNW,292,3.0,8.0,93,0.00,,,-99.99,Weather View 32 v60,2013-05-23 18:02:00,
2013-05-23 11:12:00,46.0,44.1,30.05,West,270,2.0,8.0,93,0.00,,,-99.99,Weather View 32 v60,2013-05-23 18:12:00,
2013-05-23 11:17:00,46.0,44.4,30.05,West,270,3.0,8.0,94,0.00,,,-99.99,Weather View 32 v60,2013-05-23 18:17:00,
2013-05-23 11:27:00,46.0,43.5,30.05,WNW,292,3.0,8.0,91,0.00,,,-99.99,Weather View 32 v60,2013-05-23 18:27:00,
2013-05-23 11:37:00,47.0,42.7,30.05,West,270,3.0,8.0,85,0.00,,,-99.99,Weather View 32 v60,2013-05-23 18:37:00,
2013-05-23 11:47:00,48.0,42.4,30.04,SW,225,3.0,8.0,81,0.00,,,-99.99,Weather View 32 v60,2013-05-23 18:47:00,
2013-05-23 11:52:00,49.0,44.7,30.04,SW,225,2.0,8.0,85,0.00,,,-99.99,Weather View 32 v60,2013-05-23 18:52:00,
2013-05-23 11:57:00,50.0,41.7,30.04,West,270,0.0,8.0,73,0.00,,,-99.99,Weather View 32 v60,2013-05-23 18:57:00,
2013-05-23 12:07:00,53.0,44.2,30.03,SW,225,2.0,8.0,72,0.00,,,-99.99,Weather View 32 v60,2013-05-23 19:07:00,
2013-05-23 12:17:00,53.0,43.5,30.03,WNW,292,4.0,7.0,70,0.00,,,-99.99,Weather View 32 v60,2013-05-23 19:17:00,
2013-05-23 12:22:00,53.0,43.5,30.03,NW,315,3.0,7.0,70,0.00,,,-99.99,Weather View 32 v60,2013-05-23 19:22:00,
2013-05-23 12:32:00,53.0,43.8,30.02,West,270,1.0,7.0,71,0.00,,,-99.99,Weather View 32 v60,2013-05-23 19:32:00,
2013-05-23 12:37:00,53.0,44.6,30.02,West,270,3.0,7.0,73,0.00,,,-99.99,Weather View 32 v60,2013-05-23 19:37:00,
2013-05-23 12:47:00,52.0,45.0,30.02,NW,315,6.0,8.0,77,0.01,,,-99.99,Weather View 32 v60,2013-05-23 19:47:00,
2013-05-23 12:52:00,52.0,46.0,30.02,NW,315,5.0,10.0,80,0.01,,,-99.99,Weather View 32 v60,2013-05-23 19:52:00,
2013-05-23 12:57:00,51.0,45.7,30.02,WNW,292,3.0,10.0,82,0.01,,,-99.99,Weather View 32 v60,2013-05-23 19:57:00,
2013-05-23 13:07:00,51.0,46.0,30.02,NW,315,5.0,10.0,83,0.01,,,-99.99,Weather View 32 v60,2013-05-23 20:07:00,
2013-05-23 13:17:00,50.0,45.0,30.02,SW,225,4.0,10.0,83,0.01,,,-99.99,Weather View 32 v60,2013-05-23 20:17:00,
2013-05-23 13:27:00,51.0,45.7,30.02,West,270,5.0,10.0,82,0.01,,,-99.99,Weather View 32 v60,2013-05-23 20:27:00,
2013-05-23 13:32:00,51.0,45.7,30.02,WSW,247,4.0,10.0,82,0.01,,,-99.99,Weather View 32 v60,2013-05-23 20:32:00,
2013-05-23 13:42:00,52.0,42.5,30.01,WNW,292,5.0,10.0,70,0.01,,,-99.99,Weather View 32 v60,2013-05-23 20:42:00,
2013-05-23 13:49:00,53.0,43.5,30.01,SW,225,7.0,10.0,70,0.00,,,-99.99,Weather View 32 v60,2013-05-23 20:49:00,
2013-05-23 13:57:00,54.0,43.7,30.01,West,270,6.0,11.0,68,0.00,,,-99.99,Weather View 32 v60,2013-05-23 20:57:00,
2013-05-23 14:02:00,55.0,45.0,30.01,West,270,8.0,13.0,69,0.00,,,-99.99,Weather View 32 v60,2013-05-23 21:02:00,
2013-05-23 14:12:00,54.0,45.2,30.01,WNW,292,10.0,14.0,72,0.00,,,-99.99,Weather View 32 v60,2013-05-23 21:12:00,
2013-05-23 14:17:00,54.0,44.8,30.01,NW,315,7.0,14.0,71,0.00,,,-99.99,Weather View 32 v60,2013-05-23 21:17:00,
2013-05-23 14:22:00,54.0,45.9,30.01,West,270,4.0,14.0,74,0.00,,,-99.99,Weather View 32 v60,2013-05-23 21:22:00,
2013-05-23 14:32:00,55.0,46.5,30.01,West,270,4.0,14.0,73,0.00,,,-99.99,Weather View 32 v60,2013-05-23 21:32:00,
2013-05-23 14:42:00,55.0,46.1,30.01,West,270,7.0,14.0,72,0.00,,,-99.99,Weather View 32 v60,2013-05-23 21:42:00,
2013-05-23 14:47:00,55.0,46.5,30.01,NW,315,8.0,14.0,73,0.00,,,-99.99,Weather View 32 v60,2013-05-23 21:47:00,
2013-05-23 14:52:00,55.0,46.5,30.01,West,270,5.0,14.0,73,0.00,,,-99.99,Weather View 32 v60,2013-05-23 21:52:00,
2013-05-23 15:02:00,54.0,45.9,30.01,SW,225,6.0,14.0,74,0.00,,,-99.99,Weather View 32 v60,2013-05-23 22:02:00,
2013-05-23 15:12:00,54.0,45.9,30.01,NW,315,4.0,14.0,74,0.00,,,-99.99,Weather View 32 v60,2013-05-23 22:12:00,
2013-05-23 15:17:00,54.0,45.9,30.01,West,270,8.0,14.0,74,0.00,,,-99.99,Weather View 32 v60,2013-05-23 22:17:00,
2013-05-23 15:27:00,53.0,46.0,30.02,West,270,7.0,14.0,77,0.00,,,-99.99,Weather View 32 v60,2013-05-23 22:27:00,
2013-05-23 15:32:00,53.0,47.0,30.02,West,270,4.0,14.0,80,0.00,,,-99.99,Weather View 32 v60,2013-05-23 22:32:00,
2013-05-23 15:42:00,52.0,46.0,30.02,SW,225,5.0,12.0,80,0.00,,,-99.99,Weather View 32 v60,2013-05-23 22:42:00,
2013-05-23 15:50:00,52.0,45.3,30.02,West,270,3.0,12.0,78,0.00,,,-99.99,Weather View 32 v60,2013-05-23 22:50:00,
2013-05-23 15:57:00,52.0,46.0,30.02,SW,225,2.0,12.0,80,0.00,,,-99.99,Weather View 32 v60,2013-05-23 22:57:00,
2013-05-23 16:07:00,52.0,46.0,30.02,West,270,4.0,12.0,80,0.00,,,-99.99,Weather View 32 v60,2013-05-23 23:07:00,
2013-05-23 16:12:00,52.0,46.0,30.02,West,270,3.0,12.0,80,0.00,,,-99.99,Weather View 32 v60,2013-05-23 23:12:00,
2013-05-23 16:22:00,53.0,46.3,30.02,WNW,292,8.0,10.0,78,0.00,,,-99.99,Weather View 32 v60,2013-05-23 23:22:00,
2013-05-23 16:32:00,53.0,46.0,30.02,NW,315,5.0,10.0,77,0.00,,,-99.99,Weather View 32 v60,2013-05-23 23:32:00,
2013-05-23 16:37:00,53.0,46.0,30.01,West,270,6.0,10.0,77,0.00,,,-99.99,Weather View 32 v60,2013-05-23 23:37:00,
2013-05-23 16:47:00,53.0,46.0,30.01,West,270,7.0,10.0,77,0.00,,,-99.99,Weather View 32 v60,2013-05-23 23:47:00,
2013-05-23 16:52:00,53.0,46.0,30.01,West,270,5.0,10.0,77,0.00,,,-99.99,Weather View 32 v60,2013-05-23 23:52:00,
2013-05-23 17:02:00,53.0,46.3,30.00,West,270,6.0,10.0,78,0.00,,,-99.99,Weather View 32 v60,2013-05-24 00:02:00,
2013-05-23 17:12:00,53.0,46.3,30.00,WNW,292,6.0,10.0,78,0.00,,,-99.99,Weather View 32 v60,2013-05-24 00:12:00,
2013-05-23 17:17:00,53.0,46.6,30.00,West,270,3.0,10.0,79,0.00,,,-99.99,Weather View 32 v60,2013-05-24 00:17:00,
2013-05-23 17:27:00,52.0,46.0,29.99,West,270,3.0,10.0,80,0.00,,,-99.99,Weather View 32 v60,2013-05-24 00:27:00,
2013-05-23 17:32:00,52.0,46.0,29.99,NW,315,3.0,10.0,80,0.00,,,-99.99,Weather View 32 v60,2013-05-24 00:32:00,
2013-05-23 17:37:00,52.0,45.3,30.00,West,270,3.0,10.0,78,0.00,,,-99.99,Weather View 32 v60,2013-05-24 00:37:00,
2013-05-23 17:42:00,52.0,46.0,30.00,West,270,0.0,10.0,80,0.00,,,-99.99,Weather View 32 v60,2013-05-24 00:42:00,
2013-05-23 17:51:00,52.0,45.7,30.00,WSW,247,3.0,10.0,79,0.00,,,-99.99,Weather View 32 v60,2013-05-24 00:51:00,
2013-05-23 17:57:00,52.0,46.0,30.00,SW,225,2.0,10.0,80,0.00,,,-99.99,Weather View 32 v60,2013-05-24 00:57:00,
2013-05-23 18:02:00,52.0,45.7,30.00,West,270,2.0,10.0,79,0.00,,,-99.99,Weather View 32 v60,2013-05-24 01:02:00,
2013-05-23 18:12:00,52.0,46.3,29.99,NW,315,1.0,8.0,81,0.00,,,-99.99,Weather View 32 v60,2013-05-24 01:12:00,
2013-05-23 18:17:00,52.0,46.0,29.99,WNW,292,3.0,8.0,80,0.00,,,-99.99,Weather View 32 v60,2013-05-24 01:17:00,
2013-05-23 18:22:00,52.0,46.7,29.99,West,270,1.0,8.0,82,0.00,,,-99.99,Weather View 32 v60,2013-05-24 01:22:00,
2013-05-23 18:32:00,52.0,46.7,29.99,West,270,0.0,6.0,82,0.00,,,-99.99,Weather View 32 v60,2013-05-24 01:32:00,
2013-05-23 18:37:00,52.0,47.0,29.99,West,270,0.0,5.0,83,0.00,,,-99.99,Weather View 32 v60,2013-05-24 01:37:00,
2013-05-23 18:47:00,52.0,46.7,29.99,WNW,292,1.0,5.0,82,0.00,,,-99.99,Weather View 32 v60,2013-05-24 01:47:00,
2013-05-23 18:52:00,52.0,47.0,29.99,SW,225,2.0,5.0,83,0.00,,,-99.99,Weather View 32 v60,2013-05-24 01:52:00,
2013-05-23 19:02:00,52.0,47.3,29.99,WSW,247,4.0,6.0,84,0.00,,,-99.99,Weather View 32 v60,2013-05-24 02:02:00,
2013-05-23 19:12:00,51.0,47.0,29.99,West,270,1.0,7.0,86,0.00,,,-99.99,Weather View 32 v60,2013-05-24 02:12:00,
2013-05-23 19:17:00,51.0,47.0,30.00,WNW,292,5.0,12.0,86,0.00,,,-99.99,Weather View 32 v60,2013-05-24 02:17:00,
2013-05-23 19:27:00,51.0,47.6,30.00,NW,315,3.0,12.0,88,0.00,,,-99.99,Weather View 32 v60,2013-05-24 02:27:00,
2013-05-23 19:32:00,51.0,47.9,30.00,NW,315,7.0,12.0,89,0.00,,,-99.99,Weather View 32 v60,2013-05-24 02:32:00,
2013-05-23 19:42:00,50.0,46.9,30.01,NW,315,4.0,12.0,89,0.00,,,-99.99,Weather View 32 v60,2013-05-24 02:42:00,
2013-05-23 19:52:00,50.0,46.6,30.01,NW,315,7.0,12.0,88,0.00,,,-99.99,Weather View 32 v60,2013-05-24 02:52:00,
2013-05-23 19:57:00,50.0,45.7,30.01,West,270,7.0,12.0,85,0.00,,,-99.99,Weather View 32 v60,2013-05-24 02:57:00,
2013-05-23 20:07:00,50.0,44.7,30.01,NW,315,4.0,12.0,82,0.00,,,-99.99,Weather View 32 v60,2013-05-24 03:07:00,
2013-05-23 20:17:00,49.0,43.7,30.02,NW,315,4.0,12.0,82,0.00,,,-99.99,Weather View 32 v60,2013-05-24 03:17:00,
2013-05-23 20:27:00,49.0,43.7,30.02,WNW,292,1.0,10.0,82,0.00,,,-99.99,Weather View 32 v60,2013-05-24 03:27:00,
2013-05-23 20:37:00,49.0,44.1,30.02,West,270,3.0,10.0,83,0.00,,,-99.99,Weather View 32 v60,2013-05-24 03:37:00,
2013-05-23 20:47:00,49.0,44.4,30.02,West,270,2.0,10.0,84,0.00,,,-99.99,Weather View 32 v60,2013-05-24 03:47:00,
2013-05-23 20:53:00,49.0,44.7,30.02,West,270,0.0,10.0,85,0.00,,,-99.99,Weather View 32 v60,2013-05-24 03:53:00,
2013-05-23 21:02:00,49.0,44.7,30.03,NW,315,0.0,9.0,85,0.00,,,-99.99,Weather View 32 v60,2013-05-24 04:02:00,
2013-05-23 21:07:00,48.0,43.7,30.03,SSW,202,1.0,9.0,85,0.00,,,-99.99,Weather View 32 v60,2013-05-24 04:07:00,
2013-05-23 21:12:00,48.0,43.7,30.03,South,180,0.0,9.0,85,0.00,,,-99.99,Weather View 32 v60,2013-05-24 04:12:00,
2013-05-23 21:17:00,48.0,44.0,30.03,South,180,0.0,8.0,86,0.00,,,-99.99,Weather View 32 v60,2013-05-24 04:17:00,
2013-05-23 21:22:00,48.0,44.3,30.03,South,180,0.0,8.0,87,0.00,,,-99.99,Weather View 32 v60,2013-05-24 04:22:00,
2013-05-23 21:27:00,48.0,44.3,30.03,South,180,0.0,8.0,87,0.00,,,-99.99,Weather View 32 v60,2013-05-24 04:27:00,
2013-05-23 21:32:00,48.0,44.9,30.03,WNW,292,0.0,8.0,89,0.00,,,-99.99,Weather View 32 v60,2013-05-24 04:32:00,
2013-05-23 21:42:00,48.0,44.6,30.03,NW,315,0.0,5.0,88,0.00,,,-99.99,Weather View 32 v60,2013-05-24 04:42:00,
2013-05-23 21:47:00,48.0,45.2,30.03,NW,315,0.0,4.0,90,0.00,,,-99.99,Weather View 32 v60,2013-05-24 04:47:00,
2013-05-23 21:54:00,48.0,45.5,30.03,NW,315,1.0,4.0,91,0.00,,,-99.99,Weather View 32 v60,2013-05-24 04:54:00,
2013-05-23 22:02:00,48.0,45.8,30.03,NW,315,0.0,4.0,92,0.00,,,-99.99,Weather View 32 v60,2013-05-24 05:02:00,
2013-05-23 22:12:00,48.0,46.4,30.03,NW,315,0.0,4.0,94,0.00,,,-99.99,Weather View 32 v60,2013-05-24 05:12:00,
2013-05-23 22:22:00,47.0,45.9,30.03,WNW,292,1.0,4.0,96,0.00,,,-99.99,Weather View 32 v60,2013-05-24 05:22:00,
2013-05-23 22:27:00,47.0,45.9,30.03,WNW,292,0.0,4.0,96,0.00,,,-99.99,Weather View 32 v60,2013-05-24 05:27:00,
2013-05-23 22:32:00,47.0,45.9,30.03,WNW,292,0.0,4.0,96,0.00,,,-99.99,Weather View 32 v60,2013-05-24 05:32:00,
2013-05-23 22:42:00,47.0,46.2,30.03,WNW,292,0.0,4.0,97,0.00,,,-99.99,Weather View 32 v60,2013-05-24 05:42:00,
2013-05-23 22:52:00,47.0,46.7,30.04,WNW,292,0.0,4.0,99,0.00,,,-99.99,Weather View 32 v60,2013-05-24 05:52:00,
2013-05-23 22:57:00,47.0,46.7,30.04,WNW,292,0.0,4.0,99,0.00,,,-99.99,Weather View 32 v60,2013-05-24 05:57:00,
2013-05-23 23:02:00,47.0,47.0,30.04,WNW,292,0.0,3.0,100,0.00,,,-99.99,Weather View 32 v60,2013-05-24 06:02:00,
2013-05-23 23:07:00,47.0,47.0,30.04,WNW,292,0.0,3.0,100,0.00,,,-99.99,Weather View 32 v60,2013-05-24 06:07:00,
2013-05-23 23:12:00,46.0,46.0,30.04,WNW,292,0.0,3.0,100,0.00,,,-99.99,Weather View 32 v60,2013-05-24 06:12:00,
2013-05-23 23:22:00,46.0,46.0,30.04,WNW,292,0.0,2.0,100,0.00,,,-99.99,Weather View 32 v60,2013-05-24 06:22:00,
2013-05-23 23:32:00,46.0,46.0,30.04,WNW,292,0.0,0.0,100,0.01,,,-99.99,Weather View 32 v60,2013-05-24 06:32:00,
2013-05-23 23:42:00,46.0,46.0,30.03,WNW,292,0.0,0.0,100,0.01,,,-99.99,Weather View 32 v60,2013-05-24 06:42:00,
2013-05-23 23:47:00,46.0,46.0,30.03,WNW,292,1.0,3.0,100,0.01,,,-99.99,Weather View 32 v60,2013-05-24 06:47:00,
2013-05-23 23:55:00,46.0,46.0,30.03,NW,315,2.0,5.0,100,0.02,,,-99.99,Weather View 32 v60,2013-05-24 06:55:00,